Location: Gunnison Valley Observatory
(38.5087°N, 106.9386°W)
Time: 00:59:23
(UTC-06:00)

Amateur Radio Satellites - All Passes

Search period start: 27 September 2016 00:29
Search period end: 28 September 2016 00:29
Location: Gunnison Valley Observatory, 38.5087°N, 106.9386°W

Satellite Date Start Highest point End Downlink Frequencies (MHz)
Time Altitude Azimuth
TISAT 1 27 Sep 00:37:02 00:39:23 15° 66° (ENE) 00:41:45 437.305
AISAT 27 Sep 00:45:12 00:49:25 41° 261° (W) 00:53:39 437.250
SO-50 27 Sep 00:45:25 00:49:57 59° 56° (NE) 00:54:21 436.795
SPROUT 27 Sep 00:46:04 00:50:20 81° 259° (W) 00:54:37 437.525
M-CUBED/EXP-1 PRIME 27 Sep 00:55:46 00:59:26 28° 257° (WSW) 01:02:54 437.505
BEESAT 3 27 Sep 00:57:06 01:00:23 26° 113° (ESE) 01:03:42 437.485
DUCHIFAT 1 27 Sep 00:57:35 01:01:46 84° 287° (WNW) 01:05:58 145.980
UKube-1 27 Sep 00:57:52 01:02:09 65° 258° (WSW) 01:06:29 .
QB50P1 27 Sep 00:58:28 01:02:39 71° 284° (WNW) 01:06:50 145.935-145.965
BUGSAT 1 27 Sep 01:04:50 01:08:40 43° 99° (E) 01:12:31 437.445
POPSAT HIP 1 27 Sep 01:11:58 01:16:03 49° 286° (WNW) 01:20:06 437.405
Cosmos 2491 27 Sep 01:15:04 01:21:45 23° 67° (ENE) 01:28:22 435.465 / 435.565
50 SAT 27 Sep 01:18:52 01:20:53 14° 267° (W) 01:22:55 437.505
DX 1 27 Sep 01:25:14 01:28:50 25° 264° (W) 01:32:26 434.975-435.025
RS-15 27 Sep 01:28:36 01:36:27 19° 360° (N) 01:44:24 29.354- 29.394
NANOSAT C BR1 27 Sep 01:29:21 01:33:07 33° 289° (WNW) 01:36:52 145.865
JAS-2 27 Sep 01:30:34 01:38:25 72° 287° (WNW) 01:45:53 435.910
VELOX 1 27 Sep 01:30:57 01:33:26 15° 267° (W) 01:35:57 145.980
Oscar 19 27 Sep 01:47:31 01:51:46 25° 95° (E) 01:55:58 437.125/150
BEESAT 2 27 Sep 01:49:42 01:53:30 51° 117° (ESE) 01:57:23 435.950
QB50P2 27 Sep 01:52:34 01:55:19 17° 293° (WNW) 01:58:04 145.880/145.840
POLYITAN 1 27 Sep 01:54:48 01:57:32 17° 293° (WNW) 02:00:16 437.675
ITUPSAT 1 27 Sep 01:57:47 02:01:33 24° 67° (ENE) 02:05:19 437.325
SRMSAT 27 Sep 02:10:33 02:12:18 11° 185° (S) 02:14:03 437.500
TISAT 1 27 Sep 02:10:39 02:14:39 43° 261° (W) 02:18:40 437.305
SWISSCUBE 27 Sep 02:10:49 02:15:08 36° 70° (ENE) 02:19:29 437.505
YUBILEINY 27 Sep 02:14:34 02:20:54 23° 81° (E) 02:27:13 435.215
BEESAT 27 Sep 02:23:43 02:28:12 44° 72° (ENE) 02:32:43 436.000
SO-50 27 Sep 02:27:44 02:29:51 13° 252° (WSW) 02:31:57 436.795
BEESAT 3 27 Sep 02:34:44 02:37:58 24° 310° (NW) 02:41:14 437.485
Gurwin Techsat 1B 27 Sep 02:36:21 02:41:14 36° 98° (E) 02:46:05 435.225
BUGSAT 1 27 Sep 02:41:39 02:43:40 14° 294° (WNW) 02:45:41 437.445
ISS 27 Sep 02:50:06 02:52:51 24° 28° (NNE) 02:55:35 145.825
KKS-1 27 Sep 02:59:29 02:59:50 10° 62° (ENE) 03:00:10 437.445
AO-7 27 Sep 03:09:59 03:13:43 13° 90° (E) 03:17:27 29.400- 29.500
Cosmos 2491 27 Sep 03:10:36 03:19:26 73° 266° (W) 03:28:10 435.465 / 435.565
JAS-2 27 Sep 03:18:04 03:22:00 15° 306° (NW) 03:25:54 435.910
Oscar 19 27 Sep 03:26:27 03:31:07 35° 291° (WNW) 03:35:44 437.125/150
BEESAT 2 27 Sep 03:29:16 03:31:37 15° 314° (NW) 03:33:59 435.950
STARS 27 Sep 03:34:37 03:36:12 12° 63° (ENE) 03:37:47 437.465
ITUPSAT 1 27 Sep 03:34:53 03:39:11 34° 262° (W) 03:43:31 437.325
RS-15 27 Sep 03:44:04 03:54:45 32° 35° (NE) 04:05:16 29.354- 29.394
Cosmos 2504 27 Sep 03:45:04 03:51:21 31° 86° (E) 03:57:26 435.465 / 435.565
SWISSCUBE 27 Sep 03:49:21 03:52:59 22° 265° (W) 03:56:38 437.505
MOZHAYETS 4 27 Sep 03:58:51 04:03:23 71° 75° (ENE) 04:07:57
BEESAT 27 Sep 04:03:00 04:06:10 18° 267° (W) 04:09:21 436.000
AIST 2 27 Sep 04:03:22 04:07:17 47° 116° (ESE) 04:11:16 435.215
YUBILEINY 27 Sep 04:08:02 04:16:47 71° 279° (W) 04:25:34 435.215
PCSat 27 Sep 04:13:12 04:17:43 28° 108° (ESE) 04:22:16 145.827
Gurwin Techsat 1B 27 Sep 04:16:35 04:21:00 27° 293° (WNW) 04:25:24 435.225
ITAMSAT 1 27 Sep 04:16:52 04:22:08 88° 105° (ESE) 04:27:21 435.822/435.867
ISS 27 Sep 04:26:19 04:29:25 40° 225° (SW) 04:32:32 145.825
KKS-1 27 Sep 04:31:17 04:35:44 76° 257° (WSW) 04:40:12 437.445
AIST 1 27 Sep 04:45:48 04:48:04 14° 86° (E) 04:50:20
AO-7 27 Sep 04:59:16 05:07:37 80° 107° (ESE) 05:15:55 29.400- 29.500
STARS 27 Sep 05:07:39 05:12:00 63° 259° (W) 05:16:22 437.465
Cosmos 2491 27 Sep 05:11:43 05:14:34 12° 286° (WNW) 05:17:23 435.465 / 435.565
CUBESAT XI-V 27 Sep 05:15:56 05:20:32 60° 74° (ENE) 05:25:11 437.345
BRITE-PL 27 Sep 05:29:49 05:31:35 12° 88° (E) 05:33:18 437.365/2234.400
Cosmos 2504 27 Sep 05:37:25 05:44:27 43° 283° (WNW) 05:51:15 435.465 / 435.565
CUSAT 1 27 Sep 05:38:15 05:44:38 27° 66° (ENE) 05:50:14 437.405
AIST 2 27 Sep 05:43:17 05:46:02 17° 314° (NW) 05:48:47 435.215
HORYU 2 27 Sep 05:44:17 05:48:15 31° 97° (E) 05:52:12 437.375
PCSat 27 Sep 05:55:54 06:00:55 38° 305° (NW) 06:05:59 145.827
RS-15 27 Sep 05:56:38 06:09:06 90° 55° (NE) 06:21:12 29.354- 29.394
NOAA 15 27 Sep 05:58:55 06:00:52 12° 90° (E) 06:02:50 137.62
ITAMSAT 1 27 Sep 05:59:11 06:00:48 11° 301° (WNW) 06:02:26 435.822/435.867
Cubesat XI-IV 27 Sep 06:11:21 06:13:49 13° 91° (E) 06:16:16 437.490
CUTE-I 27 Sep 06:11:43 06:14:17 13° 91° (E) 06:16:50 437.470
YUBILEINY 27 Sep 06:11:47 06:15:18 13° 300° (WNW) 06:18:50 435.215
AIST 1 27 Sep 06:21:02 06:25:13 44° 281° (W) 06:29:26
AO-85 27 Sep 06:26:33 06:30:34 47° 55° (NE) 06:34:20 145.980
O/OREOS (USA 219) 27 Sep 06:34:04 06:35:15 11° 97° (E) 06:36:26 437.305
NOAA 18 27 Sep 06:44:05 06:48:18 22° 95° (E) 06:52:30 137.9125
AO-7 27 Sep 06:53:26 06:59:29 23° 305° (NW) 07:05:31 29.400- 29.500
CUBESAT XI-V 27 Sep 06:56:16 06:58:16 13° 270° (W) 07:00:17 437.345
DANDE 27 Sep 06:58:40 07:06:49 51° 75° (ENE) 07:14:23 436.750
GOMX 1 27 Sep 06:59:37 07:03:51 45° 98° (E) 07:07:53 467.674
LilacSat-2 27 Sep 07:01:25 07:05:04 42° 99° (E) 07:08:44 437.200
BRITE-PL 27 Sep 07:05:51 07:10:37 59° 286° (WNW) 07:14:58 437.365/2234.400
CUSAT 1 27 Sep 07:19:39 07:27:11 57° 268° (W) 07:33:28 437.405
HORYU 2 27 Sep 07:21:09 07:24:37 23° 292° (WNW) 07:28:05 437.375
DOVE 4 27 Sep 07:25:22 07:29:11 34° 97° (E) 07:32:57 437.250
STRAND 1 27 Sep 07:35:08 07:40:13 80° 75° (ENE) 07:45:21 437.568
NOAA 15 27 Sep 07:35:52 07:41:11 76° 286° (WNW) 07:46:26 137.62
Cubesat XI-IV 27 Sep 07:49:01 07:54:21 71° 287° (WNW) 07:59:41 437.490
CUTE-I 27 Sep 07:49:27 07:54:47 69° 286° (WNW) 08:00:06 437.470
AO-85 27 Sep 08:08:46 08:10:26 12° 252° (WSW) 08:12:04 145.980
O/OREOS (USA 219) 27 Sep 08:09:31 08:14:01 64° 293° (WNW) 08:18:35 437.305
RS-15 27 Sep 08:11:20 08:19:52 23° 261° (W) 08:28:18 29.354- 29.394
NOAA 18 27 Sep 08:23:56 08:29:07 44° 290° (WNW) 08:34:17 137.9125
GONETS M04 27 Sep 08:30:48 08:38:52 42° 87° (E) 08:46:57
LilacSat-2 27 Sep 08:37:15 08:38:58 13° 294° (WNW) 08:40:43 437.200
PRISM 27 Sep 08:38:51 08:42:34 32° 70° (ENE) 08:46:18 437.425
GOMX 1 27 Sep 08:39:06 08:41:30 15° 296° (WNW) 08:43:51 467.674
DANDE 27 Sep 08:41:54 08:49:17 36° 273° (W) 08:56:12 436.750
CINEMA 3 27 Sep 08:42:43 08:46:52 66° 101° (E) 08:51:07 145.822/145.860
HO-68 27 Sep 08:45:28 08:52:27 53° 101° (E) 08:59:23 435.675
COMPASS 1 27 Sep 08:48:58 08:52:29 25° 95° (E) 08:55:57 437.405
Cosmos 2499 27 Sep 08:50:16 08:56:56 42° 89° (E) 09:03:28 435.465 / 435.565
DOVE 4 27 Sep 09:03:51 09:06:38 17° 293° (WNW) 09:09:23 437.250
Oscar 11 27 Sep 09:10:58 09:13:04 13° 91° (E) 09:15:11 145.826/435.025
ZACube-1 27 Sep 09:11:11 09:13:32 14° 92° (E) 09:15:52 437.345
CUTE 1.7 + AOD 2 27 Sep 09:12:38 09:16:56 77° 284° (WNW) 09:21:13 437.475
CANX-2 27 Sep 09:13:46 09:18:02 64° 285° (WNW) 09:22:17 2200.000
SEEDS 27 Sep 09:15:29 09:19:46 79° 102° (ESE) 09:24:01 437.485
BEESAT 3 27 Sep 09:16:15 09:18:05 13° 44° (NE) 09:19:56 437.485
STRAND 1 27 Sep 09:19:12 09:19:57 10° 271° (W) 09:20:43 437.568
ANTELSAT 27 Sep 09:28:37 09:30:49 14° 65° (ENE) 09:33:01 437.575/2403.000
AAUSAT CUBESAT 2 27 Sep 09:40:16 09:44:29 80° 102° (ESE) 09:48:40 437.432
TIGRISAT 27 Sep 09:48:10 09:51:24 22° 68° (ENE) 09:54:39 435.000
CUBEBUG 2 27 Sep 09:55:09 09:59:25 71° 285° (WNW) 10:03:48 437.445
FUNcube-1 27 Sep 10:04:06 10:08:20 53° 100° (E) 10:12:40 145.935
BEESAT 2 27 Sep 10:09:19 10:12:27 21° 49° (NE) 10:15:33 435.950
UWE-3 27 Sep 10:14:47 10:19:03 66° 284° (WNW) 10:23:26 435.000/436.395/437.385
PRISM 27 Sep 10:14:56 10:17:54 19° 266° (W) 10:20:53 437.425
COMPASS 1 27 Sep 10:24:28 10:27:55 25° 290° (WNW) 10:31:21 437.405
UNISAT 6 27 Sep 10:27:24 10:31:38 65° 75° (ENE) 10:35:52 437.425
GONETS M04 27 Sep 10:27:25 10:35:36 41° 286° (WNW) 10:43:52
HO-68 27 Sep 10:33:52 10:39:46 29° 298° (WNW) 10:45:40 435.675
Cosmos 2499 27 Sep 10:43:58 10:50:07 30° 287° (WNW) 10:56:13 435.465 / 435.565
Oscar 11 27 Sep 10:45:15 10:49:28 49° 286° (WNW) 10:53:39 145.826/435.025
ZACube-1 27 Sep 10:45:51 10:50:00 46° 286° (WNW) 10:54:14 437.345
NANOSAT C BR1 27 Sep 10:46:34 10:48:13 12° 64° (ENE) 10:49:54 145.865
PHONESAT 2.4 27 Sep 10:51:17 10:53:40 23° 151° (SSE) 10:56:05 2401.200-2431.200
BEESAT 3 27 Sep 10:52:12 10:56:10 66° 241° (WSW) 11:00:05 437.485
ANTELSAT 27 Sep 11:03:00 11:07:07 47° 261° (W) 11:11:15 437.575/2403.000
DELFI C3 27 Sep 11:06:13 11:10:14 69° 283° (WNW) 11:14:11 145.870
QB50P2 27 Sep 11:07:26 11:10:48 24° 69° (ENE) 11:14:12 145.880/145.840
POLYITAN 1 27 Sep 11:09:40 11:13:02 24° 69° (ENE) 11:16:24 437.675
HUMSAT D 27 Sep 11:11:55 11:16:09 63° 101° (E) 11:20:23 437.325/437.525
TIGRISAT 27 Sep 11:24:13 11:27:56 29° 263° (W) 11:31:39 435.000
JAS-2 27 Sep 11:40:27 11:46:31 47° 68° (ENE) 11:53:21 435.910
FUNcube-1 27 Sep 11:42:02 11:44:09 13° 295° (WNW) 11:46:15 145.935
ESTCUBE 1 27 Sep 11:42:39 11:46:02 20° 94° (E) 11:49:21 437.505/2401.250
BEESAT 2 27 Sep 11:46:41 11:50:19 33° 246° (WSW) 11:53:55 435.950
DUCHIFAT 1 27 Sep 11:47:42 11:51:47 56° 75° (ENE) 11:55:53 145.980
QB50P1 27 Sep 11:49:03 11:53:14 69° 75° (ENE) 11:57:25 145.935-145.965
CUBEBUG 1 27 Sep 11:51:09 11:53:36 15° 92° (E) 11:56:02 437.445
BUGSAT 1 27 Sep 11:53:23 11:56:46 25° 70° (ENE) 12:00:08 437.445
POPSAT HIP 1 27 Sep 12:02:29 12:06:41 84° 255° (WSW) 12:10:55 437.405
NANOSAT C BR1 27 Sep 12:19:21 12:23:28 54° 260° (W) 12:27:35 145.865
AIST 2 27 Sep 12:26:17 12:29:37 22° 49° (NE) 12:32:57 435.215
PHONESAT 2.4 27 Sep 12:26:39 12:29:35 83° 349° (N) 12:32:33 2401.200-2431.200
SPROUT 27 Sep 12:34:16 12:37:16 19° 94° (E) 12:40:15 437.525
AISAT 27 Sep 12:36:36 12:40:43 39° 98° (E) 12:44:49 437.250
M-CUBED/EXP-1 PRIME 27 Sep 12:36:50 12:38:41 14° 100° (E) 12:40:32 437.505
QB50P2 27 Sep 12:42:58 12:46:29 26° 264° (W) 12:50:01 145.880/145.840
POLYITAN 1 27 Sep 12:45:13 12:48:43 25° 264° (W) 12:52:13 437.675
50 SAT 27 Sep 12:46:06 12:49:39 46° 99° (E) 12:53:10 437.505
UKube-1 27 Sep 12:46:58 12:50:21 22° 95° (E) 12:53:42 .
HUMSAT D 27 Sep 12:50:00 12:51:13 11° 296° (WNW) 12:52:26 437.325/437.525
PCSat 27 Sep 13:02:21 13:06:12 19° 47° (NE) 13:10:03 145.827
Oscar 19 27 Sep 13:02:47 13:07:23 33° 69° (ENE) 13:12:00 437.125/150
DX 1 27 Sep 13:13:50 13:18:08 60° 101° (ESE) 13:22:24 434.975-435.025
ESTCUBE 1 27 Sep 13:18:45 13:22:53 35° 289° (WNW) 13:26:59 437.505/2401.250
VELOX 1 27 Sep 13:20:06 13:24:29 70° 286° (WNW) 13:28:51 145.980
CUBEBUG 1 27 Sep 13:25:58 13:30:05 43° 288° (WNW) 13:34:10 437.445
JAS-2 27 Sep 13:26:21 13:31:47 29° 268° (W) 13:37:49 435.910
DUCHIFAT 1 27 Sep 13:26:57 13:27:48 10° 269° (W) 13:28:38 145.980
BUGSAT 1 27 Sep 13:28:47 13:32:04 23° 264° (W) 13:35:20 437.445
AUBIESAT-1 27 Sep 13:33:04 13:36:23 73° 107° (ESE) 13:39:42 437.475
Gurwin Techsat 1B 27 Sep 13:55:54 14:01:00 50° 72° (ENE) 14:06:07 435.225
TISAT 1 27 Sep 13:55:58 13:59:37 29° 97° (E) 14:03:15 437.305
ITAMSAT 1 27 Sep 13:57:06 13:59:44 14° 61° (ENE) 14:02:23 435.822/435.867
PHONESAT 2.4 27 Sep 14:02:55 14:05:50 55° 3° (N) 14:08:46 2401.200-2431.200
AIST 2 27 Sep 14:04:21 14:08:10 34° 246° (WSW) 14:11:58 435.215
AO-7 27 Sep 14:07:15 14:12:55 21° 53° (NE) 14:18:34 29.400- 29.500
SPROUT 27 Sep 14:09:25 14:13:15 33° 289° (WNW) 14:17:04 437.525
M-CUBED/EXP-1 PRIME 27 Sep 14:10:34 14:13:16 24° 294° (WNW) 14:15:57 437.505
AISAT 27 Sep 14:13:56 14:16:53 18° 294° (WNW) 14:19:49 437.250
Cosmos 2491 27 Sep 14:15:02 14:21:59 27° 82° (E) 14:28:58 435.465 / 435.565
YUBILEINY 27 Sep 14:20:06 14:28:37 55° 78° (ENE) 14:37:04 435.215
50 SAT 27 Sep 14:21:48 14:22:42 11° 295° (WNW) 14:23:36 437.505
UKube-1 27 Sep 14:22:38 14:26:22 29° 291° (WNW) 14:30:05 .
BEESAT 27 Sep 14:27:09 14:29:07 12° 91° (E) 14:31:05 436.000
Oscar 19 27 Sep 14:42:15 14:46:40 28° 264° (W) 14:51:07 437.125/150
PCSat 27 Sep 14:44:42 14:50:05 65° 246° (WSW) 14:55:25 145.827
DX 1 27 Sep 14:52:08 14:53:46 12° 297° (WNW) 14:55:25 434.975-435.025
SO-50 27 Sep 14:58:23 15:02:28 28° 112° (ESE) 15:06:32 436.795
Cosmos 2504 27 Sep 15:29:47 15:37:08 58° 80° (E) 15:44:57 435.465 / 435.565
TISAT 1 27 Sep 15:31:57 15:35:04 21° 292° (WNW) 15:38:12 437.305
ITAMSAT 1 27 Sep 15:33:26 15:38:34 71° 258° (WSW) 15:43:46 435.822/435.867
ITUPSAT 1 27 Sep 15:36:06 15:40:54 68° 101° (ESE) 15:45:41 437.325
Gurwin Techsat 1B 27 Sep 15:37:31 15:41:12 19° 267° (W) 15:44:53 435.225
PHONESAT 2.4 27 Sep 15:39:04 15:42:01 63° 199° (SSW) 15:44:57 2401.200-2431.200
SWISSCUBE 27 Sep 15:49:27 15:54:16 77° 285° (WNW) 15:59:03 437.505
MOZHAYETS 4 27 Sep 15:56:11 15:59:27 19° 93° (E) 16:02:43
AO-7 27 Sep 15:56:17 16:04:38 88° 252° (WSW) 16:13:00 29.400- 29.500
BEESAT 27 Sep 16:02:32 16:07:17 63° 286° (WNW) 16:12:00 436.000
Cosmos 2491 27 Sep 16:09:30 16:18:07 61° 281° (W) 16:26:53 435.465 / 435.565
YUBILEINY 27 Sep 16:17:42 16:24:52 30° 276° (W) 16:32:02 435.215
KKS-1 27 Sep 16:24:18 16:27:45 22° 95° (E) 16:31:11 437.445
AIST 1 27 Sep 16:29:30 16:33:29 36° 78° (ENE) 16:37:23
BRITE-PL 27 Sep 16:37:35 16:41:11 17° 64° (ENE) 16:44:44 437.365/2234.400
SO-50 27 Sep 16:38:25 16:42:49 34° 308° (NW) 16:47:12 436.795
HORYU 2 27 Sep 16:41:10 16:44:45 25° 68° (ENE) 16:48:20 437.375
O/OREOS (USA 219) 27 Sep 16:42:37 16:45:54 19° 58° (ENE) 16:49:10 437.305
STARS 27 Sep 16:58:51 17:02:28 25° 96° (E) 17:06:03 437.465
CUBESAT XI-V 27 Sep 17:15:07 17:18:07 17° 92° (E) 17:21:07 437.345
ITUPSAT 1 27 Sep 17:15:57 17:18:08 13° 298° (WNW) 17:20:20 437.325
PHONESAT 2.4 27 Sep 17:16:19 17:17:45 13° 214° (SSW) 17:19:10 2401.200-2431.200
NOAA 15 27 Sep 17:16:50 17:20:25 19° 63° (ENE) 17:24:02 137.62
Cosmos 2504 27 Sep 17:24:15 17:29:58 24° 276° (W) 17:35:58 435.465 / 435.565
Cubesat XI-IV 27 Sep 17:31:29 17:35:17 20° 64° (ENE) 17:39:06 437.490
CUTE-I 27 Sep 17:31:42 17:35:32 21° 64° (ENE) 17:39:23 437.470
MOZHAYETS 4 27 Sep 17:32:24 17:36:44 39° 289° (WNW) 17:41:03
LilacSat-2 27 Sep 17:42:55 17:45:26 17° 68° (ENE) 17:47:57 437.200
AO-7 27 Sep 17:53:40 17:58:22 16° 269° (W) 18:03:05 29.400- 29.500
KKS-1 27 Sep 18:00:26 18:04:18 31° 290° (WNW) 18:08:10 437.445
GOMX 1 27 Sep 18:04:59 18:10:10 47° 73° (ENE) 18:15:08 467.674
AIST 1 27 Sep 18:08:06 18:10:43 16° 274° (W) 18:13:18
NOAA 18 27 Sep 18:08:42 18:13:42 38° 68° (ENE) 18:18:42 137.9125
BRITE-PL 27 Sep 18:13:23 18:19:04 67° 260° (W) 18:24:40 437.365/2234.400
RS-15 27 Sep 18:13:30 18:18:13 13° 94° (E) 18:22:58 29.354- 29.394
Cosmos 2491 27 Sep 18:15:59 18:17:04 10° 303° (WNW) 18:18:07 435.465 / 435.565
HORYU 2 27 Sep 18:17:24 18:21:10 27° 263° (W) 18:24:57 437.375
O/OREOS (USA 219) 27 Sep 18:21:09 18:25:30 42° 255° (WSW) 18:29:47 437.305
DOVE 4 27 Sep 18:28:41 18:33:13 34° 72° (ENE) 18:37:31 437.250
STARS 27 Sep 18:35:05 18:38:45 27° 291° (WNW) 18:42:23 437.465
CUSAT 1 27 Sep 18:37:25 18:42:21 25° 83° (E) 18:48:04 437.405
GONETS M04 27 Sep 18:43:45 18:49:30 19° 64° (ENE) 18:55:11
Cosmos 2499 27 Sep 18:43:50 18:47:07 13° 64° (ENE) 18:50:31 435.465 / 435.565
CUBESAT XI-V 27 Sep 18:51:14 18:55:42 44° 288° (WNW) 19:00:08 437.345
NOAA 15 27 Sep 18:54:33 18:59:44 54° 259° (W) 19:04:57 137.62
Cubesat XI-IV 27 Sep 19:09:50 19:14:57 49° 260° (W) 19:20:07 437.490
CUTE-I 27 Sep 19:10:06 19:15:12 48° 260° (W) 19:20:21 437.470
HO-68 27 Sep 19:12:49 19:19:08 35° 64° (ENE) 19:25:25 435.675
LilacSat-2 27 Sep 19:16:14 19:19:31 28° 264° (W) 19:22:48 437.200
ISS 27 Sep 19:30:41 19:32:05 12° 128° (SE) 19:33:29 145.825
COMPASS 1 27 Sep 19:39:20 19:41:40 15° 66° (ENE) 19:44:02 437.405
CINEMA 3 27 Sep 19:42:42 19:47:04 50° 74° (ENE) 19:51:15 145.822/145.860
GOMX 1 27 Sep 19:44:24 19:48:21 20° 267° (W) 19:52:13 467.674
STRAND 1 27 Sep 19:47:27 19:51:58 30° 97° (E) 19:56:29 437.568
NOAA 18 27 Sep 19:49:52 19:54:24 26° 264° (W) 19:58:57 137.9125
CUTE 1.7 + AOD 2 27 Sep 20:03:28 20:07:37 60° 75° (ENE) 20:11:49 437.475
CANX-2 27 Sep 20:04:37 20:08:49 73° 77° (ENE) 20:13:05 2200.000
DANDE 27 Sep 20:05:07 20:09:49 47° 90° (E) 20:16:03 436.750
SEEDS 27 Sep 20:05:33 20:09:31 43° 73° (ENE) 20:13:31 437.485
DOVE 4 27 Sep 20:06:48 20:10:53 24° 265° (W) 20:14:50 437.250
RS-15 27 Sep 20:16:47 20:28:09 70° 114° (ESE) 20:40:10 29.354- 29.394
CUSAT 1 27 Sep 20:17:43 20:23:40 54° 285° (WNW) 20:31:01 437.405
AAUSAT CUBESAT 2 27 Sep 20:28:49 20:32:42 41° 73° (ENE) 20:36:39 437.432
Cosmos 2499 27 Sep 20:33:43 20:41:21 79° 83° (E) 20:49:33 435.465 / 435.565
GONETS M04 27 Sep 20:38:39 20:47:31 87° 264° (W) 20:56:16
AO-85 27 Sep 20:38:53 20:43:16 27° 112° (ESE) 20:47:29 145.980
CUBEBUG 2 27 Sep 20:51:41 20:55:54 78° 76° (ENE) 21:00:03 437.445
FUNcube-1 27 Sep 20:58:29 21:02:09 32° 72° (ENE) 21:05:52 145.935
HO-68 27 Sep 20:59:53 21:06:38 44° 261° (W) 21:13:25 435.675
ISS 27 Sep 21:04:59 21:08:11 60° 323° (NW) 21:11:26 145.825
UWE-3 27 Sep 21:10:11 21:14:21 82° 76° (ENE) 21:18:30 435.000/436.395/437.385
COMPASS 1 27 Sep 21:12:52 21:16:50 43° 261° (W) 21:20:51 437.405
CINEMA 3 27 Sep 21:22:16 21:24:25 13° 268° (W) 21:26:31 145.822/145.860
JUGNU 27 Sep 21:25:08 21:26:31 11° 174° (S) 21:27:53 437.505
STRAND 1 27 Sep 21:26:37 21:31:03 30° 292° (WNW) 21:35:29 437.568
Oscar 11 27 Sep 21:38:00 21:42:18 79° 258° (WSW) 21:46:38 145.826/435.025
ZACube-1 27 Sep 21:39:56 21:44:04 72° 259° (WSW) 21:48:12 437.345
SEEDS 27 Sep 21:43:09 21:45:24 14° 268° (W) 21:47:41 437.485
CUTE 1.7 + AOD 2 27 Sep 21:43:32 21:43:50 10° 270° (W) 21:44:07 437.475
DANDE 27 Sep 21:48:59 21:53:08 22° 296° (WNW) 21:58:10 436.750
DELFI C3 27 Sep 21:50:09 21:54:02 52° 74° (ENE) 21:57:57 145.870
PRISM 27 Sep 21:56:23 22:00:30 64° 102° (ESE) 22:04:33 437.425
HUMSAT D 27 Sep 22:01:51 22:05:32 34° 72° (ENE) 22:09:15 437.325/437.525
AAUSAT CUBESAT 2 27 Sep 22:06:05 22:08:22 14° 268° (W) 22:10:40 437.432
AO-85 27 Sep 22:18:46 22:23:37 38° 307° (NW) 22:28:11 145.980
UNISAT 6 27 Sep 22:21:27 22:24:05 15° 93° (E) 22:26:45 437.425
Cosmos 2499 27 Sep 22:28:53 22:33:37 18° 278° (W) 22:38:34 435.465 / 435.565
RS-15 27 Sep 22:30:48 22:41:32 39° 319° (NW) 22:52:48 29.354- 29.394
FUNcube-1 27 Sep 22:35:40 22:38:29 18° 266° (W) 22:41:18 145.935
GONETS M04 27 Sep 22:38:18 22:42:56 16° 283° (WNW) 22:47:32
ESTCUBE 1 27 Sep 22:41:23 22:44:15 17° 65° (ENE) 22:47:06 437.505/2401.250
ISS 27 Sep 22:43:33 22:45:13 13° 341° (NNW) 22:46:55 145.825
CUBEBUG 1 27 Sep 22:47:01 22:48:29 12° 63° (ENE) 22:49:58 437.445
ANTELSAT 27 Sep 22:55:39 22:59:45 36° 98° (E) 23:03:55 437.575/2403.000
JUGNU 27 Sep 23:12:47 23:14:36 11° 184° (S) 23:16:25 437.505
TIGRISAT 27 Sep 23:16:00 23:20:22 59° 101° (E) 23:24:48 435.000
M-CUBED/EXP-1 PRIME 27 Sep 23:21:13 23:24:16 20° 65° (ENE) 23:27:10 437.505
50 SAT 27 Sep 23:22:17 23:24:39 17° 68° (ENE) 23:27:01 437.505
SPROUT 27 Sep 23:27:39 23:29:33 13° 64° (ENE) 23:31:26 437.525
DELFI C3 27 Sep 23:28:29 23:29:10 10° 269° (W) 23:29:51 145.870
SO-50 27 Sep 23:31:18 23:34:32 19° 45° (NE) 23:37:43 436.795
AISAT 27 Sep 23:32:32 23:36:24 30° 70° (ENE) 23:40:16 437.250
PRISM 27 Sep 23:34:34 23:35:13 10° 297° (WNW) 23:35:52 437.425
QB50P1 27 Sep 23:37:08 23:38:49 12° 92° (E) 23:40:29 145.935-145.965
HUMSAT D 27 Sep 23:38:36 23:41:14 17° 267° (W) 23:43:54 437.325/437.525
UKube-1 27 Sep 23:40:44 23:43:30 17° 66° (ENE) 23:46:16 .
POPSAT HIP 1 27 Sep 23:49:41 23:52:28 17° 94° (E) 23:55:14 437.405
UNISAT 6 27 Sep 23:56:46 00:00:59 44° 287° (WNW) 00:05:16 437.425
NANOSAT C BR1 28 Sep 00:05:28 00:08:56 25° 96° (E) 00:12:23 145.865
DX 1 28 Sep 00:07:43 00:11:51 43° 72° (ENE) 00:16:00 434.975-435.025
SRMSAT 28 Sep 00:09:18 00:11:04 11° 176° (S) 00:12:50 437.500
VELOX 1 28 Sep 00:15:27 00:19:55 85° 76° (ENE) 00:24:23 145.980
ESTCUBE 1 28 Sep 00:16:19 00:20:39 45° 261° (W) 00:25:02 437.505/2401.250
AUBIESAT-1 28 Sep 00:17:04 00:21:10 75° 71° (ENE) 00:24:59 437.475
CUBEBUG 1 28 Sep 00:19:48 00:24:11 65° 258° (WSW) 00:28:36 437.445
